This demonstration page uses our WeatherBlox Daily Observations layout. Learn more.

Left ArrowRight Arrow

Hourly Observations for January 29, 2018

Temp ( °F °C ) Dew Point ( °F °C ) Humidity (%) Winds ( mph kmh ) Pressure ( in mb ) Visibility ( mi km ) Precip ( " mm )
12:56 am 00:56 Clear 15 -9.4 10 -12.2 80 80 N 6 9 30.69 1039 10 16 0.00 0.00
1:56 am 01:56 Clear 14 -10 10 -12.2 84 84 Calm 30.67 1039 10 16 0.00 0.00
2:56 am 02:56 Clear 14 -10 10 -12.2 84 84 W 6 9 30.68 1039 10 16 0.00 0.00
3:56 am 03:56 Partly Cloudy 14 -10 10 -12.2 84 84 WNW 6 9 30.68 1039 10 16 0.00 0.00
4:56 am 04:56 Cloudy 15 -9.4 12 -11.1 88 88 NW 7 11 30.67 1039 10 16 0.00 0.00
5:56 am 05:56 Cloudy 16 -8.9 12 -11.1 84 84 NNW 5 7 30.67 1039 10 16 0.00 0.00
6:56 am 06:56 Cloudy 16 -8.9 12 -11.1 84 84 N 5 7 30.67 1039 10 16 0.00 0.00
7:56 am 07:56 Cloudy 16 -8.9 11 -11.7 80 80 Calm 30.66 1038 10 16 0.00 0.00
8:56 am 08:56 Mostly Cloudy 16 -8.9 12 -11.1 84 84 Calm 30.66 1038 10 16 0.00 0.00
9:56 am 09:56 Cloudy 19 -7.2 13 -10.6 77 77 Calm 30.65 1038 10 16 0.00 0.00
10:56 am 10:56 Cloudy 21 -6.1 14 -10 74 74 Calm 30.66 1038 10 16 0.00 0.00
11:56 am 11:56 Cloudy 24 -4.4 15 -9.4 68 68 Calm 30.62 1037 10 16 0.00 0.00
12:56 pm 12:56 Sunny 27 -2.8 17 -8.3 66 66 SSE 5 7 30.58 1036 10 16 0.00 0.00
1:56 pm 13:56 Sunny 31 -0.6 19 -7.2 61 61 S 10 17 30.52 1034 10 16 0.00 0.00
2:56 pm 14:56 Mostly Sunny 32 0 20 -6.7 61 61 S 8 13 30.50 1033 10 16 0.00 0.00
3:56 pm 15:56 Mostly Cloudy 33 0.6 19 -7.2 56 56 S 10 17 30.49 1032 10 16 0.00 0.00
4:56 pm 16:56 Cloudy 32 0 20 -6.7 61 61 S 8 13 30.47 1032 10 16 0.00 0.00
5:56 pm 17:56 Mostly Cloudy 29 -1.7 20 -6.7 69 69 S 8 13 30.47 1032 10 16 0.00 0.00
6:56 pm 18:56 Clear 27 -2.8 20 -6.7 75 75 S 9 15 30.47 1032 10 16 0.00 0.00
7:56 pm 19:56 Mostly Clear 26 -3.3 19 -7.2 75 75 S 6 9 30.48 1032 10 16 0.00 0.00
8:56 pm 20:56 Clear 25 -3.9 19 -7.2 78 78 SSE 7 11 30.46 1032 10 16 0.00 0.00
9:56 pm 21:56 Clear 25 -3.9 18 -7.8 75 75 SSE 8 13 30.45 1031 10 16 0.00 0.00
10:56 pm 22:56 Clear 23 -5 17 -8.3 78 78 SE 8 13 30.42 1030 10 16 0.00 0.00
11:56 pm 23:56 Clear 22 -5.6 17 -8.3 82 82 SSE 9 15 30.39 1029 10 16 0.00 0.00

Powered by AerisWeather